Location: Borea
(45.6167°N, 23.0167°E)
Time: 05:32:04
(UTC+00:00)

IRIDIUM 114 - Pass Details

Date: 03 February 2023
Orbit: 776 x 779 km, 86.4° (Epoch: 29 March)

Event Time Altitude Azimuth Distance (km) Brightness Sun altitude
Rises 17:02:55 0° 359° (N) 3,272 7.5 -15.3°
Reaches altitude 10° 17:05:19 10° 2° (N) 2,340 6.7 -15.7°
Maximum altitude 17:10:31 65° 84° (E) 857 4.3 -16.6°
Drops below altitude 10° 17:15:41 10° 167° (SSE) 2,321 6.7 -17.5°
Sets 17:18:02 0° 170° (S) 3,244 7.5 -17.9°
